Weather History for Zapata, TX

Change the Weather History Date:

Friday, January 10, 2014

  Actual Average (KLRD) Record (KLRD)
Temperature  
Mean Temperature 66 °F 56 °F  
Max Temperature 77 °F 66 °F 89 °F (1963)
Min Temperature 55 °F 46 °F 22 °F (1962)
Degree Days  
Heating Degree Days 0 10  
Month to date heating degree days 100  
Since 1 July heating degree days 490  
Cooling Degree Days 1 1  
Month to date cooling degree days 10  
Year to date cooling degree days 10  
Growing Degree Days 16 (Base 50)    
Moisture  
Dew Point 55 °F    
Average Humidity 71    
Maximum Humidity 95    
Minimum Humidity 40    
Precipitation  
Precipitation 0.00 in 0.03 in 0.50 in (2001)
Month to date precipitation 0.30  
Year to date precipitation 0.30  
Sea Level Pressure  
Sea Level Pressure 29.89 in    
Wind  
Wind Speed 6 mph (South)    
Max Wind Speed 12 mph    
Max Gust Speed 18 mph    
Visibility 9 miles    
Events      
T = Trace of Precipitation, MM = Missing Value Source: NWS Daily Summary

Daily Weather History Graph

Daily Weather History Graph

Search for Another Location

Airport:

Trip Planner

Search our weather history database for the weather conditions in past years. The results will help you decide how hot, cold, wet, or windy it might be!

Date:

Astronomy

Jan. 10, 2014 Rise Set
Actual Time 7:27 AM CST 6:01 PM CST
Civil Twilight 7:02 AM CST 6:26 PM CST
Nautical Twilight 6:33 AM CST 6:55 PM CST
Astronomical Twilight 6:05 AM CST 7:23 PM CST
Moon 1:59 PM CST (1/10) 2:45 AM CST (1/10)
Length of Visible Light 11h 24m
Length of Day
10h 34m
Waxing Gibbous, 75% of the Moon is Illuminated
Jan 10
Waxing Gibbous
Jan 15
Full
Jan 23
Last Quarter
Jan 30
New
Feb 6
First Quarter

Hourly Weather History & Observations

Time (CST) Temp. Dew Point Humidity Pressure Visibility Wind Dir Wind Speed Gust Speed Precip Events Conditions
12:15 AM 66.2 °F 58.1 °F 75% 29.95 in 10.0 mi SE 10.4 mph 16.1 mph N/A   Overcast
12:35 AM 65.8 °F 58.1 °F 76% 29.94 in 10.0 mi SE 8.1 mph - N/A   Overcast
12:55 AM 65.8 °F 57.7 °F 75% 29.94 in 10.0 mi SE 10.4 mph 18.4 mph N/A   Overcast
1:15 AM 65.8 °F 57.4 °F 74% 29.93 in 10.0 mi SSE 10.4 mph - N/A   Overcast
1:35 AM 66.2 °F 57.2 °F 73% 29.92 in 10.0 mi SSE 10.4 mph 16.1 mph N/A   Overcast
1:55 AM 66.2 °F 56.7 °F 71% 29.92 in 10.0 mi SSE 11.5 mph 18.4 mph N/A   Overcast
2:15 AM 66.4 °F 56.7 °F 71% 29.91 in 10.0 mi SSE 9.2 mph 16.1 mph N/A   Overcast
2:35 AM 65.8 °F 56.3 °F 71% 29.89 in 10.0 mi SE 10.4 mph 16.1 mph N/A   Mostly Cloudy
2:55 AM 64.4 °F 56.5 °F 75% 29.89 in 10.0 mi SE 9.2 mph 17.3 mph N/A   Scattered Clouds
3:15 AM 63.7 °F 56.7 °F 78% 29.89 in 10.0 mi SSE 8.1 mph - N/A   Scattered Clouds
3:35 AM 63.7 °F 57.2 °F 79% 29.89 in 10.0 mi SSE 9.2 mph 16.1 mph N/A   Mostly Cloudy
3:55 AM 63.5 °F 57.4 °F 80% 29.89 in 10.0 mi SSE 9.2 mph - N/A   Overcast
4:15 AM 62.4 °F 58.1 °F 86% 29.89 in 10.0 mi SSE 6.9 mph - N/A   Mostly Cloudy
4:35 AM 61.7 °F 58.3 °F 89% 29.89 in 10.0 mi SSE 5.8 mph - N/A   Clear
4:55 AM 60.8 °F 58.1 °F 91% 29.87 in 10.0 mi SSE 4.6 mph - N/A   Clear
5:15 AM 59.9 °F 57.6 °F 92% 29.88 in 7.0 mi Calm Calm - N/A   Clear
5:35 AM 59.4 °F 57.4 °F 93% 29.87 in 7.0 mi SSE 3.5 mph - N/A   Clear
5:55 AM 58.5 °F 56.8 °F 94% 29.87 in 5.0 mi Calm Calm - N/A   Scattered Clouds
6:15 AM 59.0 °F 57.6 °F 95% 29.87 in 5.0 mi SSE 3.5 mph - N/A   Overcast
6:35 AM 59.7 °F 58.1 °F 94% 29.87 in 7.0 mi SSE 3.5 mph - N/A   Overcast
6:55 AM 60.1 °F 58.5 °F 94% 29.88 in 7.0 mi Calm Calm - N/A   Overcast
7:15 AM 60.3 °F 58.5 °F 94% 29.89 in 7.0 mi Calm Calm - N/A   Overcast
7:35 AM 60.8 °F 59.0 °F 94% 29.89 in 7.0 mi South 4.6 mph - N/A   Overcast
7:55 AM 60.8 °F 59.0 °F 94% 29.90 in 4.0 mi SSE 6.9 mph - N/A   Overcast
8:15 AM 60.4 °F 59.0 °F 95% 29.90 in 4.0 mi SSE 4.6 mph - N/A   Overcast
8:35 AM 60.4 °F 58.8 °F 94% 29.91 in 4.0 mi South 5.8 mph - N/A   Overcast
8:55 AM 61.0 °F 59.0 °F 93% 29.92 in 5.0 mi SSE 5.8 mph - N/A   Overcast
9:15 AM 61.9 °F 59.2 °F 91% 29.92 in 5.0 mi SSE 5.8 mph - N/A   Overcast
9:35 AM 64.4 °F 58.1 °F 80% 29.93 in 7.0 mi SSE 5.8 mph - N/A   Overcast
9:55 AM 66.0 °F 57.6 °F 74% 29.94 in 10.0 mi SSE 4.6 mph - N/A   Scattered Clouds
10:15 AM 67.3 °F 57.2 °F 70% 29.94 in 10.0 mi South 4.6 mph - N/A   Mostly Cloudy
10:35 AM 67.3 °F 57.2 °F 70% 29.94 in 10.0 mi South 6.9 mph - N/A   Overcast
10:55 AM 67.3 °F 57.2 °F 70% 29.93 in 10.0 mi WSW 5.8 mph - N/A   Overcast
11:15 AM 68.7 °F 57.2 °F 67% 29.92 in 10.0 mi South 4.6 mph - N/A   Mostly Cloudy
11:35 AM 71.1 °F 56.1 °F 59% 29.91 in 10.0 mi SSW 6.9 mph - N/A   Mostly Cloudy
11:55 AM 70.7 °F 55.8 °F 59% 29.91 in 10.0 mi SW 8.1 mph - N/A   Overcast
12:15 PM 69.1 °F 56.8 °F 65% 29.91 in 10.0 mi WNW 6.9 mph - N/A   Overcast
12:35 PM 71.1 °F 56.3 °F 60% 29.89 in 10.0 mi West 6.9 mph - N/A   Mostly Cloudy
12:55 PM 70.9 °F 55.9 °F 59% 29.88 in 10.0 mi WSW 4.6 mph - N/A   Scattered Clouds
1:15 PM 71.6 °F 55.8 °F 57% 29.86 in 10.0 mi West 4.6 mph - N/A   Scattered Clouds
1:35 PM 71.1 °F 55.4 °F 58% 29.85 in 10.0 mi WSW 3.5 mph - N/A   Clear
1:55 PM 72.5 °F 54.3 °F 53% 29.84 in 10.0 mi NW 5.8 mph - N/A   Clear
2:15 PM 72.9 °F 54.0 °F 51% 29.83 in 10.0 mi WSW 6.9 mph - N/A   Clear
2:35 PM 74.3 °F 53.6 °F 48% 29.82 in 10.0 mi WNW 4.6 mph - N/A   Clear
2:55 PM 75.0 °F 53.1 °F 46% 29.82 in 10.0 mi West 9.2 mph - N/A   Clear
3:15 PM 76.1 °F 53.2 °F 45% 29.82 in 10.0 mi NW 3.5 mph - N/A   Clear
3:35 PM 76.6 °F 53.4 °F 44% 29.82 in 10.0 mi WNW 6.9 mph - N/A   Clear
3:55 PM 77.2 °F 52.7 °F 42% 29.82 in 10.0 mi NNW 6.9 mph - N/A   Clear
4:15 PM 77.2 °F 52.3 °F 42% 29.83 in 10.0 mi NW 5.8 mph - N/A   Clear
4:35 PM 77.2 °F 51.8 °F 41% 29.83 in 10.0 mi Calm Calm - N/A   Clear
4:55 PM 77.2 °F 51.1 °F 40% 29.83 in 10.0 mi NNW 4.6 mph - N/A   Clear
5:15 PM 76.6 °F 51.3 °F 41% 29.83 in 10.0 mi North 3.5 mph - N/A   Clear
5:35 PM 74.8 °F 51.8 °F 44% 29.83 in 10.0 mi North 3.5 mph - N/A   Clear
5:55 PM 72.1 °F 51.8 °F 49% 29.83 in 10.0 mi NNE 3.5 mph - N/A   Clear
6:15 PM 69.4 °F 52.3 °F 54% 29.84 in 10.0 mi Calm Calm - N/A   Clear
6:35 PM 65.5 °F 52.7 °F 63% 29.85 in 10.0 mi Calm Calm - N/A   Clear
6:55 PM 63.5 °F 52.7 °F 68% 29.85 in 10.0 mi SSE 3.5 mph - N/A   Clear
7:15 PM 62.1 °F 51.8 °F 69% 29.86 in 10.0 mi South 3.5 mph - N/A   Clear
7:35 PM 63.0 °F 52.7 °F 69% 29.87 in 10.0 mi South 3.5 mph - N/A   Clear
7:55 PM 64.2 °F 53.6 °F 68% 29.89 in 10.0 mi Calm Calm - N/A   Clear
8:15 PM 63.9 °F 54.0 °F 70% 29.89 in 10.0 mi South 3.5 mph - N/A   Clear
8:35 PM 63.1 °F 54.0 °F 72% 29.89 in 10.0 mi SSW 4.6 mph - N/A   Clear
8:55 PM 63.5 °F 54.3 °F 72% 29.90 in 10.0 mi South 3.5 mph - N/A   Clear
9:15 PM 62.4 °F 54.0 °F 74% 29.91 in 10.0 mi Calm Calm - N/A   Clear
9:35 PM 62.2 °F 53.4 °F 73% 29.91 in 10.0 mi Calm Calm - N/A   Clear
9:55 PM 61.7 °F 53.4 °F 74% 29.91 in 10.0 mi Calm Calm - N/A   Clear
10:15 PM 59.9 °F 52.9 °F 78% 29.90 in 10.0 mi Calm Calm - N/A   Clear
10:35 PM 59.2 °F 52.9 °F 80% 29.91 in 10.0 mi WSW 3.5 mph - N/A   Clear
10:55 PM 59.2 °F 52.5 °F 79% 29.91 in 10.0 mi Calm Calm - N/A   Clear
11:15 PM 55.9 °F 52.3 °F 88% 29.92 in 10.0 mi Calm Calm - N/A   Clear
11:35 PM 57.0 °F 53.1 °F 87% 29.91 in 10.0 mi South 4.6 mph - N/A   Clear
11:55 PM 57.0 °F 53.4 °F 88% 29.91 in 10.0 mi Calm Calm - N/A   Clear